QPF
0.04 0.05 0.06 0.05 0.03 0.03 0.02 0.03 0.04 0.04 0.04 0.04 0.04 0.03 0.03 0.03 0.02 0.02 0.02 0.02 0.01 0.02 0.02 0.01 0.01 0.01 0.02 0.02 0.02 0.01 0.02 0.05 0.09 0.08 0.06 0.06 0.06 0.05
0.06 0.06 0.06 0.06 0.05 0.04 0.03 0.03 0.04 0.04 0.03 0.04 0.04 0.04 0.03 0.02 0.02 0.01 0.01 0.02 0.02 0.02 0.03 0.03 0.02 0.01 0.01 0.01 0.01 0.01 0.01 0.02 0.03 0.04 0.04 0.04 0.05 0.05
0.06 0.07 0.06 0.06 0.07 0.06 0.04 0.03 0.03 0.04 0.04 0.03 0.04 0.05 0.05 0.03 0.02 0.02 0.01 0.01 0.01 0.01 0.01 0.01 0.01 0.01 0.02 0.02 0.02 0.01 0.01 0.01 0.01 0.02 0.02 0.03 0.03 0.03
0.06 0.07 0.06 0.06 0.06 0.05 0.05 0.05 0.04 0.04 0.04 0.03 0.04 0.05 0.06 0.04 0.03 0.02 0.01 0.01 0.01 0.01 0.01 0.01 0.01 0.01 0.01 0.01 0.01 0.01 0.01 0.00 0.00 0.01 0.01 0.02 0.02 0.02
0.08 0.07 0.05 0.05 0.05 0.04 0.04 0.04 0.04 0.03 0.05 0.04 0.03 0.05 0.05 0.05 0.03 0.02 0.02 0.02 0.01 0.01 0.02 0.02 0.02 0.02 0.02 0.01 0.01 0.01 0.01 0.00 0.00 0.00 0.01 0.01 0.02 0.02
0.07 0.07 0.06 0.05 0.04 0.04 0.04 0.04 0.05 0.05 0.06 0.05 0.04 0.05 0.06 0.05 0.05 0.04 0.03 0.03 0.02 0.02 0.02 0.02 0.02 0.02 0.02 0.01 0.01 0.01 0.01 0.01 0.01 0.01 0.01 0.01 0.01 0.02
0.05 0.06 0.06 0.06 0.03 0.03 0.03 0.04 0.06 0.05 0.05 0.06 0.06 0.05 0.06 0.06 0.06 0.05 0.04 0.04 0.03 0.04 0.04 0.03 0.03 0.02 0.02 0.02 0.02 0.02 0.02 0.01 0.01 0.01 0.00 0.01 0.01 0.01
0.05 0.05 0.06 0.05 0.04 0.02 0.02 0.04 0.05 0.05 0.05 0.05 0.05 0.05 0.04 0.05 0.05 0.05 0.05 0.06 0.05 0.03 0.03 0.03 0.03 0.03 0.03 0.03 0.03 0.02 0.01 0.01 0.00 0.00 0.00 0.00 0.01 0.01
0.06 0.06 0.05 0.04 0.04 0.03 0.03 0.03 0.03 0.03 0.02 0.04 0.04 0.04 0.03 0.04 0.05 0.04 0.05 0.05 0.04 0.03 0.04 0.04 0.04 0.04 0.03 0.03 0.02 0.02 0.01 0.01 0.01 0.01 0.00 0.01 0.01 0.01
0.04 0.05 0.05 0.05 0.05 0.05 0.05 0.04 0.04 0.04 0.03 0.03 0.02 0.02 0.03 0.04 0.05 0.06 0.06 0.05 0.05 0.05 0.05 0.04 0.05 0.05 0.04 0.04 0.03 0.02 0.02 0.02 0.01 0.01 0.01 0.01 0.01 0.01
0.03 0.04 0.04 0.04 0.06 0.08 0.08 0.08 0.08 0.07 0.04 0.04 0.02 0.02 0.02 0.02 0.04 0.05 0.05 0.06 0.06 0.06 0.07 0.06 0.05 0.05 0.06 0.05 0.02 0.03 0.03 0.04 0.03 0.02 0.01 0.01 0.01 0.01
0.05 0.06 0.04 0.04 0.06 0.08 0.11 0.12 0.10 0.09 0.06 0.05 0.04 0.05 0.04 0.03 0.03 0.05 0.05 0.06 0.06 0.06 0.07 0.08 0.06 0.07 0.06 0.05 0.04 0.03 0.05 0.05 0.04 0.03 0.02 0.01 0.01 0.01
0.06 0.07 0.06 0.04 0.03 0.04 0.08 0.12 0.11 0.09 0.08 0.07 0.07 0.05 0.05 0.04 0.04 0.05 0.06 0.05 0.05 0.05 0.06 0.09 0.09 0.09 0.07 0.06 0.05 0.06 0.06 0.06 0.05 0.05 0.04 0.03 0.03 0.02
0.06 0.07 0.06 0.05 0.04 0.04 0.04 0.06 0.08 0.09 0.10 0.11 0.08 0.06 0.05 0.04 0.04 0.05 0.06 0.06 0.06 0.06 0.06 0.08 0.09 0.09 0.08 0.07 0.07 0.08 0.08 0.06 0.06 0.07 0.07 0.05 0.04 0.04
0.04 0.05 0.05 0.06 0.04 0.04 0.04 0.05 0.07 0.07 0.10 0.12 0.09 0.07 0.06 0.05 0.05 0.05 0.06 0.07 0.07 0.06 0.06 0.05 0.07 0.08 0.09 0.09 0.09 0.09 0.10 0.08 0.07 0.07 0.08 0.07 0.05 0.04
0.03 0.04 0.04 0.05 0.04 0.03 0.04 0.05 0.06 0.08 0.08 0.10 0.11 0.09 0.07 0.06 0.06 0.05 0.06 0.06 0.05 0.04 0.05 0.05 0.06 0.07 0.08 0.08 0.09 0.10 0.10 0.09 0.08 0.08 0.08 0.08 0.06 0.04
0.04 0.03 0.03 0.03 0.03 0.03 0.04 0.05 0.06 0.07 0.08 0.08 0.08 0.09 0.08 0.07 0.06 0.05 0.04 0.05 0.04 0.05 0.04 0.04 0.05 0.06 0.06 0.07 0.07 0.07 0.09 0.08 0.06 0.07 0.10 0.11 0.07 0.05
0.07 0.06 0.04 0.03 0.03 0.04 0.05 0.06 0.07 0.07 0.07 0.08 0.09 0.08 0.07 0.06 0.04 0.03 0.03 0.05 0.05 0.06 0.05 0.02 0.03 0.04 0.06 0.07 0.08 0.08 0.09 0.10 0.09 0.08 0.09 0.10 0.08 0.05
0.10 0.11 0.08 0.06 0.06 0.06 0.07 0.08 0.09 0.09 0.08 0.08 0.08 0.07 0.06 0.05 0.04 0.03 0.03 0.05 0.08 0.07 0.09 0.08 0.07 0.06 0.06 0.07 0.08 0.09 0.09 0.09 0.10 0.09 0.07 0.07 0.07 0.06
0.10 0.12 0.12 0.10 0.09 0.09 0.10 0.10 0.10 0.11 0.11 0.10 0.10 0.08 0.07 0.06 0.05 0.04 0.04 0.05 0.06 0.06 0.07 0.08 0.08 0.07 0.07 0.07 0.08 0.08 0.07 0.07 0.09 0.09 0.08 0.08 0.06 0.05
0.07 0.09 0.09 0.09 0.09 0.08 0.08 0.09 0.09 0.09 0.10 0.10 0.11 0.11 0.09 0.07 0.06 0.04 0.04 0.05 0.06 0.06 0.06 0.07 0.07 0.06 0.06 0.07 0.08 0.08 0.06 0.06 0.07 0.07 0.07 0.07 0.06 0.05
0.03 0.04 0.05 0.05 0.06 0.05 0.04 0.05 0.06 0.07 0.08 0.09 0.09 0.09 0.09 0.08 0.07 0.06 0.06 0.06 0.06 0.06 0.06 0.06 0.06 0.06 0.06 0.06 0.06 0.07 0.06 0.05 0.05 0.06 0.06 0.06 0.05 0.04
0.03 0.04 0.05 0.05 0.06 0.06 0.06 0.06 0.05 0.05 0.06 0.08 0.09 0.08 0.07 0.07 0.07 0.08 0.08 0.07 0.06 0.05 0.05 0.05 0.05 0.06 0.07 0.07 0.07 0.07 0.06 0.06 0.05 0.05 0.05 0.06 0.05 0.04
MSLP
1015.17 1015.41 1015.67 1015.91 1016.11 1016.24 1016.28 1016.25 1016.14 1015.98 1015.78 1015.57 1015.34 1015.12 1014.90 1014.67 1014.44 1014.22 1014.03 1013.88 1013.81 1013.82 1013.93 1014.11 1014.35 1014.59 1014.79 1014.88 1014.81 1014.57 1014.16 1013.61 1012.98 1012.36 1011.83 1011.48 1011.38 1011.55
1015.14 1015.37 1015.61 1015.84 1016.03 1016.17 1016.23 1016.22 1016.14 1016.00 1015.82 1015.61 1015.38 1015.13 1014.86 1014.57 1014.27 1013.96 1013.68 1013.44 1013.29 1013.23 1013.29 1013.46 1013.70 1013.98 1014.23 1014.40 1014.42 1014.29 1013.98 1013.52 1012.98 1012.42 1011.93 1011.61 1011.51 1011.67
1015.08 1015.29 1015.51 1015.73 1015.92 1016.07 1016.16 1016.18 1016.13 1016.03 1015.89 1015.70 1015.48 1015.22 1014.93 1014.60 1014.23 1013.86 1013.49 1013.16 1012.92 1012.78 1012.77 1012.88 1013.10 1013.38 1013.66 1013.89 1014.02 1013.99 1013.81 1013.49 1013.07 1012.62 1012.23 1011.97 1011.90 1012.06
1014.94 1015.13 1015.35 1015.56 1015.76 1015.93 1016.05 1016.11 1016.11 1016.06 1015.97 1015.82 1015.63 1015.39 1015.09 1014.74 1014.35 1013.92 1013.48 1013.08 1012.74 1012.51 1012.41 1012.45 1012.60 1012.84 1013.13 1013.39 1013.58 1013.66 1013.61 1013.43 1013.16 1012.86 1012.58 1012.41 1012.40 1012.57
1014.71 1014.90 1015.11 1015.33 1015.54 1015.74 1015.89 1016.01 1016.07 1016.08 1016.04 1015.95 1015.80 1015.60 1015.32 1014.98 1014.58 1014.13 1013.65 1013.19 1012.78 1012.45 1012.25 1012.18 1012.24 1012.41 1012.65 1012.90 1013.13 1013.28 1013.34 1013.29 1013.18 1013.03 1012.89 1012.82 1012.88 1013.08
1014.40 1014.60 1014.81 1015.05 1015.29 1015.52 1015.72 1015.88 1016.00 1016.07 1016.09 1016.06 1015.97 1015.81 1015.58 1015.27 1014.88 1014.43 1013.94 1013.44 1012.97 1012.56 1012.26 1012.07 1012.02 1012.08 1012.23 1012.44 1012.65 1012.84 1012.98 1013.05 1013.07 1013.07 1013.06 1013.11 1013.24 1013.48
1014.07 1014.28 1014.52 1014.78 1015.05 1015.31 1015.55 1015.76 1015.93 1016.05 1016.12 1016.14 1016.09 1015.98 1015.80 1015.53 1015.18 1014.75 1014.27 1013.75 1013.24 1012.77 1012.38 1012.08 1011.91 1011.85 1011.89 1012.01 1012.18 1012.37 1012.55 1012.70 1012.84 1012.95 1013.08 1013.23 1013.44 1013.71
1013.80 1014.04 1014.31 1014.60 1014.90 1015.19 1015.46 1015.70 1015.90 1016.05 1016.14 1016.19 1016.17 1016.09 1015.93 1015.70 1015.39 1015.00 1014.54 1014.04 1013.51 1013.00 1012.54 1012.15 1011.87 1011.69 1011.61 1011.64 1011.74 1011.90 1012.09 1012.29 1012.50 1012.72 1012.94 1013.19 1013.47 1013.78
1013.66 1013.94 1014.24 1014.56 1014.89 1015.20 1015.49 1015.73 1015.93 1016.08 1016.17 1016.20 1016.19 1016.11 1015.97 1015.77 1015.49 1015.13 1014.71 1014.24 1013.72 1013.20 1012.70 1012.25 1011.87 1011.59 1011.41 1011.34 1011.37 1011.47 1011.65 1011.87 1012.12 1012.40 1012.70 1013.02 1013.34 1013.68
1013.73 1014.04 1014.37 1014.71 1015.05 1015.36 1015.64 1015.87 1016.04 1016.15 1016.21 1016.21 1016.16 1016.06 1015.91 1015.71 1015.45 1015.13 1014.75 1014.31 1013.82 1013.32 1012.81 1012.33 1011.90 1011.55 1011.29 1011.14 1011.09 1011.14 1011.28 1011.49 1011.76 1012.07 1012.40 1012.76 1013.11 1013.46
1014.00 1014.34 1014.69 1015.03 1015.35 1015.64 1015.89 1016.07 1016.19 1016.25 1016.24 1016.18 1016.08 1015.94 1015.76 1015.55 1015.30 1015.00 1014.66 1014.26 1013.83 1013.36 1012.87 1012.40 1011.95 1011.57 1011.26 1011.04 1010.93 1010.93 1011.02 1011.19 1011.44 1011.74 1012.08 1012.43 1012.79 1013.14
1014.44 1014.77 1015.10 1015.42 1015.71 1015.95 1016.15 1016.27 1016.33 1016.32 1016.25 1016.12 1015.96 1015.76 1015.55 1015.32 1015.07 1014.79 1014.48 1014.14 1013.75 1013.33 1012.90 1012.45 1012.02 1011.63 1011.30 1011.04 1010.88 1010.82 1010.85 1010.98 1011.18 1011.43 1011.73 1012.06 1012.38 1012.70
1014.94 1015.23 1015.51 1015.77 1016.00 1016.18 1016.31 1016.38 1016.37 1016.30 1016.16 1015.98 1015.77 1015.54 1015.29 1015.05 1014.80 1014.53 1014.26 1013.96 1013.63 1013.27 1012.89 1012.49 1012.09 1011.72 1011.38 1011.11 1010.91 1010.79 1010.76 1010.81 1010.94 1011.12 1011.35 1011.61 1011.88 1012.14
1015.38 1015.59 1015.78 1015.96 1016.11 1016.23 1016.29 1016.30 1016.24 1016.12 1015.95 1015.74 1015.50 1015.25 1015.00 1014.75 1014.50 1014.26 1014.01 1013.76 1013.48 1013.18 1012.85 1012.51 1012.16 1011.81 1011.48 1011.19 1010.96 1010.79 1010.68 1010.65 1010.69 1010.78 1010.91 1011.08 1011.27 1011.46
1015.64 1015.75 1015.84 1015.92 1015.99 1016.02 1016.03 1015.99 1015.90 1015.77 1015.59 1015.38 1015.15 1014.91 1014.66 1014.42 1014.20 1013.98 1013.76 1013.54 1013.31 1013.05 1012.78 1012.49 1012.17 1011.85 1011.54 1011.25 1010.98 1010.76 1010.59 1010.47 1010.40 1010.38 1010.41 1010.47 1010.56 1010.67
1015.69 1015.67 1015.66 1015.64 1015.61 1015.58 1015.54 1015.47 1015.38 1015.26 1015.10 1014.92 1014.73 1014.52 1014.30 1014.09 1013.89 1013.69 1013.50 1013.30 1013.10 1012.88 1012.65 1012.40 1012.12 1011.83 1011.53 1011.23 1010.94 1010.68 1010.44 1010.23 1010.07 1009.94 1009.85 1009.80 1009.79 1009.82
1015.53 1015.41 1015.28 1015.17 1015.07 1014.99 1014.91 1014.84 1014.76 1014.67 1014.56 1014.43 1014.29 1014.12 1013.95 1013.77 1013.59 1013.41 1013.23 1013.04 1012.86 1012.66 1012.45 1012.22 1011.98 1011.71 1011.43 1011.13 1010.83 1010.53 1010.23 1009.96 1009.70 1009.47 1009.28 1009.13 1009.02 1008.97
1015.26 1015.05 1014.85 1014.66 1014.51 1014.39 1014.30 1014.23 1014.18 1014.13 1014.08 1014.00 1013.91 1013.80 1013.66 1013.50 1013.33 1013.15 1012.96 1012.78 1012.59 1012.39 1012.19 1011.98 1011.75 1011.50 1011.24 1010.95 1010.64 1010.32 1009.99 1009.66 1009.33 1009.03 1008.75 1008.51 1008.32 1008.20
1015.01 1014.75 1014.50 1014.27 1014.09 1013.96 1013.87 1013.82 1013.79 1013.78 1013.77 1013.75 1013.69 1013.60 1013.48 1013.33 1013.15 1012.95 1012.74 1012.53 1012.32 1012.10 1011.90 1011.68 1011.47 1011.23 1010.98 1010.71 1010.41 1010.08 1009.73 1009.37 1009.00 1008.64 1008.30 1008.00 1007.74 1007.56
1014.89 1014.61 1014.35 1014.12 1013.94 1013.81 1013.73 1013.70 1013.70 1013.72 1013.74 1013.73 1013.70 1013.61 1013.48 1013.31 1013.10 1012.86 1012.60 1012.34 1012.09 1011.84 1011.61 1011.39 1011.17 1010.94 1010.70 1010.45 1010.16 1009.84 1009.49 1009.11 1008.72 1008.33 1007.95 1007.60 1007.30 1007.06
1014.97 1014.72 1014.48 1014.27 1014.11 1014.00 1013.94 1013.93 1013.95 1013.99 1014.01 1014.01 1013.96 1013.85 1013.69 1013.47 1013.20 1012.90 1012.58 1012.26 1011.95 1011.65 1011.38 1011.13 1010.90 1010.67 1010.44 1010.19 1009.91 1009.60 1009.26 1008.88 1008.48 1008.07 1007.67 1007.29 1006.95 1006.68
1015.25 1015.05 1014.86 1014.69 1014.57 1014.49 1014.46 1014.47 1014.50 1014.54 1014.55 1014.53 1014.45 1014.30 1014.08 1013.80 1013.47 1013.09 1012.70 1012.31 1011.93 1011.57 1011.25 1010.96 1010.69 1010.44 1010.19 1009.94 1009.67 1009.36 1009.02 1008.65 1008.25 1007.84 1007.42 1007.03 1006.67 1006.36
1015.67 1015.53 1015.39 1015.28 1015.20 1015.17 1015.17 1015.19 1015.23 1015.26 1015.26 1015.20 1015.08 1014.88 1014.61 1014.26 1013.86 1013.41 1012.95 1012.48 1012.03 1011.61 1011.22 1010.87 1010.56 1010.26 1009.99 1009.71 1009.41 1009.10 1008.75 1008.38 1007.98 1007.57 1007.16 1006.76 1006.38 1006.06
Thickness
5717 5716 5715 5715 5716 5715 5713 5710 5704 5699 5701 5707 5710 5713 5712 5710 5708 5706 5704 5702 5700 5699 5697 5695 5693 5692 5691 5690 5689 5688 5687 5686 5685 5683 5682 5681 5679 5678
5714 5713 5712 5712 5712 5711 5710 5709 5707 5702 5699 5705 5707 5709 5709 5708 5705 5703 5702 5700 5698 5697 5695 5694 5691 5690 5688 5687 5686 5684 5683 5682 5680 5679 5678 5677 5675 5674
5710 5709 5708 5708 5707 5706 5706 5705 5703 5701 5697 5700 5704 5705 5704 5703 5701 5700 5699 5698 5696 5695 5693 5691 5689 5687 5686 5684 5683 5681 5679 5678 5676 5675 5674 5673 5671 5670
5706 5705 5704 5704 5702 5701 5700 5700 5699 5698 5695 5693 5696 5697 5698 5698 5698 5697 5697 5696 5694 5693 5691 5689 5687 5685 5683 5681 5679 5677 5675 5674 5672 5671 5669 5668 5667 5666
5702 5700 5699 5698 5697 5696 5695 5694 5694 5694 5692 5690 5690 5692 5693 5693 5692 5692 5692 5691 5691 5690 5688 5686 5684 5682 5680 5678 5676 5674 5672 5670 5668 5667 5665 5664 5663 5661
5699 5697 5696 5694 5692 5691 5690 5689 5689 5687 5686 5685 5685 5686 5686 5688 5686 5685 5684 5685 5685 5685 5684 5683 5681 5679 5676 5674 5672 5670 5668 5666 5664 5662 5661 5659 5658 5657
5694 5693 5692 5690 5688 5687 5686 5684 5683 5681 5680 5679 5679 5679 5680 5679 5679 5679 5677 5678 5678 5679 5678 5678 5677 5674 5672 5670 5669 5667 5665 5662 5661 5659 5657 5656 5654 5652
5689 5688 5687 5685 5683 5681 5680 5679 5677 5676 5674 5674 5674 5673 5674 5675 5675 5674 5672 5670 5669 5674 5672 5671 5672 5670 5670 5668 5667 5664 5662 5660 5658 5656 5654 5652 5650 5649
5683 5682 5682 5681 5678 5676 5674 5673 5672 5672 5671 5671 5669 5670 5671 5672 5671 5669 5668 5666 5665 5668 5666 5664 5666 5665 5666 5666 5664 5662 5660 5657 5655 5652 5650 5648 5647 5645
5677 5677 5675 5673 5672 5669 5669 5667 5666 5666 5667 5667 5667 5668 5669 5668 5667 5665 5664 5662 5663 5664 5663 5658 5659 5660 5662 5661 5660 5658 5657 5655 5652 5650 5648 5645 5643 5641
5671 5670 5668 5666 5664 5662 5662 5660 5660 5660 5662 5663 5663 5664 5663 5662 5661 5658 5656 5654 5654 5656 5658 5655 5655 5654 5655 5655 5655 5654 5653 5651 5649 5647 5644 5641 5639 5636
5663 5662 5661 5660 5658 5656 5655 5654 5653 5654 5655 5656 5656 5658 5658 5658 5656 5654 5651 5649 5648 5649 5653 5651 5650 5648 5647 5651 5651 5649 5647 5646 5645 5643 5640 5637 5635 5631
5656 5656 5655 5653 5651 5649 5648 5648 5648 5648 5648 5649 5651 5652 5652 5652 5652 5650 5649 5647 5645 5645 5649 5647 5644 5643 5642 5643 5644 5644 5643 5641 5639 5637 5636 5634 5632 5629
5648 5649 5648 5646 5645 5643 5642 5643 5642 5642 5642 5643 5644 5645 5646 5646 5647 5647 5646 5645 5644 5644 5644 5642 5639 5638 5636 5635 5636 5639 5639 5638 5636 5634 5632 5630 5627 5625
5640 5639 5639 5638 5638 5638 5638 5638 5637 5636 5637 5637 5638 5639 5640 5641 5641 5641 5640 5639 5639 5639 5638 5637 5636 5634 5632 5631 5631 5632 5632 5633 5632 5630 5628 5626 5623 5621
5631 5631 5631 5631 5631 5632 5632 5632 5633 5633 5632 5632 5632 5633 5634 5634 5634 5633 5632 5632 5630 5631 5632 5632 5631 5629 5627 5627 5626 5626 5627 5626 5627 5626 5624 5622 5621 5619
5623 5624 5625 5625 5625 5626 5627 5627 5628 5627 5626 5626 5626 5626 5626 5626 5625 5626 5625 5624 5622 5622 5623 5625 5625 5624 5623 5621 5620 5620 5621 5620 5620 5619 5617 5616 5615 5614
5617 5619 5620 5620 5621 5621 5621 5621 5622 5622 5621 5621 5620 5619 5618 5618 5617 5617 5617 5616 5616 5616 5617 5617 5617 5615 5614 5615 5615 5614 5613 5613 5613 5613 5612 5610 5608 5608
5612 5613 5615 5615 5616 5616 5616 5616 5616 5617 5616 5615 5614 5613 5611 5610 5609 5609 5609 5609 5608 5609 5610 5610 5609 5608 5605 5605 5608 5608 5607 5607 5606 5606 5606 5605 5603 5602
5608 5608 5609 5609 5610 5609 5610 5610 5611 5611 5610 5608 5607 5606 5605 5604 5603 5601 5602 5602 5602 5602 5603 5603 5602 5602 5600 5600 5600 5601 5601 5601 5600 5599 5599 5598 5596 5595
5604 5603 5604 5604 5604 5604 5603 5604 5604 5604 5603 5602 5600 5599 5599 5597 5597 5596 5596 5595 5595 5595 5595 5596 5597 5597 5597 5595 5593 5593 5594 5594 5594 5592 5592 5590 5588 5587
5598 5597 5598 5598 5597 5597 5596 5596 5595 5595 5594 5593 5593 5593 5592 5591 5591 5591 5591 5591 5590 5590 5590 5590 5591 5589 5588 5587 5586 5586 5586 5586 5585 5585 5584 5584 5582 5580
5590 5589 5589 5589 5588 5587 5587 5586 5586 5585 5584 5584 5584 5584 5585 5585 5585 5586 5585 5585 5584 5583 5583 5582 5582 5581 5581 5581 5580 5579 5579 5578 5578 5577 5577 5576 5575 5574